{"data":{"norad_id":46553,"intl_designator":"2020-070X","name":"STARLINK-1664","alt_names":[],"object_type":"PAYLOAD","status":"ACTIVE","operator":null,"country":"US","launch_date":"2020-10-06","launch_site_code":"AFETR","launch_vehicle":null,"mission":null,"orbit_class":"UNKNOWN","rcs_meters":null,"size_class":null,"mass_kg":null,"dimensions":null,"purposes":["comms"],"wikipedia_slug":null,"has_3d_model":false,"image_url":null,"decayed_at":null,"tle_current":{"epoch":"2026-09-19T15:32:05.525952Z","epoch_age_seconds":95702,"freshness":"FRESH","line1":"1 46553U 20070X   26262.64728618  .00065692  00000+0  55538-3 0  9998","line2":"2 46553  53.0373 277.9722 0007724  25.8579 334.2822 15.69117169330251","mean_motion":15.69117169,"eccentricity":0.0007724,"inclination_deg":53.0373,"raan_deg":277.9722,"arg_perigee_deg":25.8579,"mean_anomaly_deg":334.2822,"bstar":0.00055538,"rev_number":33025,"period_min":91.771349421772,"perigee_km":356.21810319761,"apogee_km":366.62937662863,"semimajor_km":6739.5607399131,"source":"CELESTRAK","updated_at":"2026-09-20T09:00:38.585422Z"}}}